BEEAGLESAT (42736 NORAD) Tracking and Keplerian Element Data

This shows tracking and keplerian element data for the satellite.

Feedback or suggestion? Click here.




ElementValue
Catalog42736
NameBEEAGLESAT
Epoch Orbit8370
Epoch Day316.11682027
Epoch Year2018
RAAN320.7763
Inclination51.6323
Eccentricity0.0006723
Argument of Perigee62.6968
Mean Anonmoly297.4716
Mean Motion15.77297031
Decay Rate0.00047901
L11 42736U 98067MR 18316.11682027 .00047901 00000-0 28688-3 0 9994
L22 42736 51.6323 320.7763 0006723 62.6968 297.4716 15.77297031 83703

Live tracking and technical data element details for BEEAGLESAT (NORAD 42736). BEEAGLESAT can be tracked NOW for your location showing map with azimuth and elevation plus other details from your city location.

Track the satellite on the map from your city or location and see movement details for azimuth, elevation, latitude, longitude, range, height, and movement on the map or in text.







IsCatalogInMostPopularTable: catalog: 42736, numindb: 151
Update: records affected: 1



GetName: 42736 BEEAGLESAT

Hit Count: updated at: Mon, 12 Nov 2018 21:43:01 GMT